Simultaneous Nadir Overpasses (SNOs) Predictions

Prediction of SNOs between NPP and PACE Satellite Orbit:

Table of predicted SNOs for the next 14.0 days since TLE Epoch: 10/19/2024
Index Date (NPP) Time (NPP) Lat,Lon (NPP) SZA (NPP ) Date (PACE) Time (PACE) Lat,Lon (PACE) SZA (PACE ) Distance(km) Time Diff (sec)
1 10/19/2024 04:22:12 79.91, 76.48 91.72 10/19/2024 04:22:30 79.92, 76.47 91.71 0.46 18
2 10/21/2024 07:57:54 -79.91,-157.44 87.53 10/21/2024 07:58:24 -79.91,-157.49 87.54 1.10 30
3 10/21/2024 08:48:34 79.75, 11.44 92.20 10/21/2024 08:47:28 79.74, 11.54 92.21 1.99 66
4 10/23/2024 11:33:38 79.95, -31.79 93.29 10/23/2024 11:34:18 79.95, -31.74 93.27 1.03 40
5 10/23/2024 12:24:16 -79.76, 137.42 87.05 10/23/2024 12:23:21 -79.76, 137.43 87.03 0.34 55
6 10/25/2024 15:09:19 -79.94, 94.38 86.00 10/25/2024 15:10:09 -79.95, 94.31 86.01 1.39 50
7 10/25/2024 15:59:59 79.78, -96.74 93.73 10/25/2024 15:59:13 79.78, -96.69 93.74 1.08 46
8 10/27/2024 18:45:01 79.95,-139.60 94.74 10/27/2024 18:45:59 79.95,-139.68 94.72 1.61 58
9 10/27/2024 19:35:39 -79.75, 29.61 85.60 10/27/2024 19:35:02 -79.76, 29.50 85.57 2.26 37
10 10/29/2024 22:20:43 -79.99, -13.93 84.49 10/29/2024 22:21:48 -79.99, -13.90 84.52 0.76 65
11 10/29/2024 23:11:23 79.83, 154.95 95.24 10/29/2024 23:10:52 79.82, 155.08 95.24 2.69 31
12 11/01/2024 01:56:24 79.99, 112.16 96.20 11/01/2024 01:57:35 80.00, 112.08 96.19 1.74 71



Historial Predications of SNOs between NPP and PACE
